EW4785 Weather Reports


Display with metric or nautical units.
time (UTC)temp
F
wind
direction
speed
MPH
gust
MPH
rain 1hr
in
rain 24hr
in
rain mn
in
humidity
%
barometer
mb
20260510004501 66 184 0.0 2.0 0.00 0.00 0.00 81 1010.7
20260510003002 66 184 0.0 4.0 0.00 0.00 0.00 80 1010.8
20260510001600 67 176 0.0 2.0 0.00 0.00 0.00 79 1010.6
20260510000101 68 182 1.0 4.0 0.00 0.00 0.00 77 1010.6
20260509234611 68 177 2.0 4.0 0.00 0.00 0.00 76 1010.5
20260509233059 69 178 1.0 5.0 0.00 0.00 0.00 75 1010.5
20260509231558 70 170 1.0 5.0 0.00 0.00 0.00 74 1010.2
20260509230159 70 173 2.0 4.0 0.00 0.00 0.00 74 1010.3
20260509224557 71 129 1.0 6.0 0.00 0.00 0.00 73 1010.0
20260509223100 72 180 1.0 8.0 0.00 0.00 0.00 72 1009.9
20260509221555 72 186 1.0 8.0 0.00 0.00 0.00 73 1010.0
20260509214554 72 142 1.0 5.0 0.00 0.00 0.00 70 1009.9
20260509213055 72 188 2.0 8.0 0.00 0.00 0.00 70 1009.9
20260509211554 72 130 2.0 8.0 0.00 0.00 0.00 71 1010.0
20260509210058 72 161 3.0 8.0 0.00 0.00 0.00 70 1010.0
20260509204558 72 174 2.0 9.0 0.00 0.00 0.00 70 1009.7
20260509203046 71 241 2.0 5.0 0.00 0.00 0.00 71 1010.1
20260509201546 71 171 3.0 8.0 0.00 0.00 0.00 73 1010.2
20260509200044 70 164 1.0 5.0 0.00 0.00 0.00 73 1010.3
20260509194544 70 281 2.0 7.0 0.00 0.00 0.00 73 1010.3
20260509193044 70 140 2.0 8.0 0.00 0.00 0.00 72 1010.5
20260509191538 69 251 2.0 8.0 0.00 0.00 0.00 74 1010.8
20260509190037 69 185 1.0 4.0 0.00 0.00 0.00 74 1010.7
20260509184538 69 114 2.0 8.0 0.00 0.00 0.00 74 1010.9
20260509183036 69 103 3.0 7.0 0.00 0.00 0.00 73 1010.9
20260509181534 70 259 3.0 10.0 0.00 0.00 0.00 72 1011.1
20260509180033 69 183 3.0 9.0 0.00 0.00 0.00 73 1011.2
20260509174532 70 175 4.0 10.0 0.00 0.00 0.00 72 1011.4
20260509173033 69 182 3.0 10.0 0.00 0.00 0.00 75 1011.4
20260509171533 68 203 3.0 9.0 0.00 0.00 0.00 75 1011.6
20260509170028 69 120 3.0 9.0 0.00 0.00 0.00 72 1011.8
20260509164526 69 154 4.0 10.0 0.00 0.00 0.00 70 1011.9
20260509163024 69 189 3.0 9.0 0.00 0.00 0.00 69 1012.1
20260509161523 70 174 3.0 9.0 0.00 0.00 0.00 68 1012.3
20260509160024 68 159 3.0 11.0 0.00 0.00 0.00 69 1012.2
20260509154521 69 222 4.0 9.0 0.00 0.00 0.00 67 1012.4
20260509153026 68 173 3.0 12.0 0.00 0.00 0.00 69 1012.5
20260509151516 67 188 2.0 9.0 0.00 0.00 0.00 70 1012.3
20260509150018 67 170 2.0 7.0 0.00 0.00 0.00 71 1012.3
20260509144513 65 117 1.0 10.0 0.00 0.00 0.00 72 1012.5
20260509143016 65 232 1.0 6.0 0.00 0.00 0.00 75 1012.8
20260509141503 63 184 1.0 6.0 0.00 0.00 0.00 78 1013.2
20260509140113 61 132 1.0 7.0 0.00 0.00 0.00 81 1013.2
20260509134558 61 215 1.0 7.0 0.00 0.00 0.00 80 1013.9
20260509133102 60 163 3.0 8.0 0.00 0.00 0.00 82 1014.0
20260509131557 58 144 3.0 7.0 0.00 0.00 0.00 86 1014.0
20260509130057 57 152 2.0 6.0 0.00 0.00 0.00 88 1014.2
20260509124547 56 173 0.0 3.0 0.00 0.00 0.00 91 1014.0
20260509123044 55 167 0.0 3.0 0.00 0.00 0.00 92 1013.9
20260509121556 54 214 0.0 5.0 0.00 0.00 0.00 94 1013.8
20260509120038 53 197 0.0 3.0 0.00 0.00 0.00 95 1013.4
20260509114536 51 197 0.0 2.0 0.00 0.00 0.00 96 1013.4
20260509113035 50 197 0.0 2.0 0.00 0.00 0.00 96 1013.9
20260509111535 49 197 0.0 0.0 0.00 0.00 0.00 96 1013.8
20260509110033 48 197 0.0 0.0 0.00 0.00 0.00 95 1013.4
20260509104533 48 197 0.0 1.0 0.00 0.00 0.00 95 1013.2
20260509103035 47 197 0.0 1.0 0.00 0.00 0.00 94 1013.2
20260509101531 48 197 0.0 1.0 0.00 0.00 0.00 93 1012.8
20260509100031 48 197 0.0 0.0 0.00 0.00 0.00 93 1012.9
20260509094525 48 197 0.0 0.0 0.00 0.00 0.00 92 1012.7
20260509093023 49 197 0.0 0.0 0.00 0.00 0.00 92 1012.9
20260509091521 49 197 0.0 0.0 0.00 0.00 0.00 91 1013.2
20260509090019 50 197 0.0 0.0 0.00 0.00 0.00 90 1012.9
20260509084520 50 197 0.0 0.0 0.00 0.00 0.00 91 1013.1
20260509083015 50 197 0.0 0.0 0.00 0.00 0.00 89 1013.2
20260509081513 50 197 0.0 0.0 0.00 0.00 0.00 88 1013.4
20260509080011 51 197 0.0 2.0 0.00 0.00 0.00 86 1013.5
20260509074509 51 197 0.0 1.0 0.00 0.00 0.00 86 1013.6
20260509073007 51 197 0.0 2.0 0.00 0.00 0.00 84 1013.5
20260509071504 52 197 0.0 2.0 0.00 0.00 0.00 82 1013.6
20260509070004 52 197 0.0 2.0 0.00 0.00 0.00 81 1013.8
20260509064503 52 197 0.0 1.0 0.00 0.00 0.00 80 1013.6
20260509063111 53 197 0.0 2.0 0.00 0.00 0.00 80 1014.0
20260509061558 53 197 0.0 2.0 0.00 0.00 0.00 80 1014.4
20260509054611 52 197 0.0 1.0 0.00 0.00 0.00 79 1014.6
20260509053132 53 197 0.0 1.0 0.00 0.00 0.00 79 1014.7
20260509051551 53 197 0.0 1.0 0.00 0.00 0.00 79 1015.1
20260509050051 53 197 0.0 0.0 0.00 0.00 0.00 78 1015.3
20260509044551 53 197 0.0 0.0 0.00 0.00 0.00 78 1015.4
20260509043104 52 197 0.0 1.0 0.00 0.00 0.00 80 1015.2
20260509041558 52 197 0.0 0.0 0.00 0.00 0.00 81 1015.1
20260509040050 53 197 0.0 0.0 0.00 0.00 0.00 80 1014.9
20260509034559 53 197 0.0 0.0 0.00 0.00 0.00 81 1015.2
20260509033042 53 197 0.0 0.0 0.00 0.00 0.00 79 1015.1
20260509031540 53 197 0.0 0.0 0.00 0.00 0.00 76 1015.1
20260509030040 53 197 0.0 0.0 0.00 0.00 0.00 76 1015.3
20260509024540 53 197 0.0 0.0 0.00 0.00 0.00 76 1015.2
20260509023039 53 197 0.0 0.0 0.00 0.00 0.00 76 1015.4
20260509021539 54 197 0.0 0.0 0.00 0.00 0.00 78 1015.6
20260509020050 54 197 0.0 0.0 0.00 0.00 0.00 77 1015.5
20260509014537 55 197 0.0 0.0 0.00 0.00 0.00 77 1015.5
20260509013047 55 197 0.0 0.0 0.00 0.00 0.00 74 1015.3
20260509011537 56 197 0.0 0.0 0.00 0.00 0.00 73 1015.2
20260509010049 56 197 0.0 0.0 0.00 0.00 0.00 71 1015.2